Location: Cerezo de Arriba
(41.2389°N, 3.5585°W)
Time: 04:06:47
(UTC+00:00)

Okean 1 - Pass Details

Date: 19 May 2025
Orbit: 478 x 498 km, 82.5° (Epoch: 23 June)

Event Time Altitude Azimuth Distance (km) Brightness Sun altitude
Exits shadow 21:43:37 38° 73° (ENE) 770 3.8 -19.9°
Drops below altitude 10° 21:46:37 10° 23° (NNE) 1,684 6.2 -20.3°
Sets 21:48:47 0° 16° (NNE) 2,565 7.3 -20.5°
